Weather History for San Carlos, CA

Change the Weather History Date:

Friday, December 13, 2013

  Actual Average Record
Temperature  
Mean Temperature 45 °F -  
Max Temperature 55 °F 58 °F 70 °F (1953)
Min Temperature 35 °F 38 °F 28 °F (1985)
Degree Days  
Heating Degree Days 20    
Moisture  
Dew Point 36 °F    
Average Humidity 81    
Maximum Humidity 87    
Minimum Humidity 62    
Precipitation  
Precipitation 0.00 in - - ()
Sea Level Pressure  
Sea Level Pressure 30.29 in    
Wind  
Wind Speed 2 mph (SE)    
Max Wind Speed 7 mph    
Max Gust Speed -    
Visibility 10 miles    
Events      
Averages and records for this station are not official NWS values.
T = Trace of Precipitation, MM = Missing Value Source: NWS Daily Summary

Daily Weather History Graph

Daily Weather History Graph

Search for Another Location

Airport:

Trip Planner

Search our weather history database for the weather conditions in past years. The results will help you decide how hot, cold, wet, or windy it might be!

Date:

Astronomy

Dec. 13, 2013 Rise Set
Actual Time 7:15 AM PST 4:51 PM PST
Civil Twilight 6:46 AM PST 5:20 PM PST
Nautical Twilight 6:13 AM PST 5:53 PM PST
Astronomical Twilight 5:41 AM PST 6:25 PM PST
Moon 2:35 PM PST (12/13) 3:46 AM PST (12/13)
Length of Visible Light 10h 34m
Length of Day
9h 36m
Waxing Gibbous, 88% of the Moon is Illuminated
Dec 13
Waxing Gibbous
Dec 17
Full
Dec 25
Last Quarter
Jan 1
New
Jan 7
First Quarter

Hourly Weather History & Observations

Time (PST) Temp. Windchill Dew Point Humidity Pressure Visibility Wind Dir Wind Speed Gust Speed Precip Events Conditions
12:15 AM 39.2 °F 37.0 °F 35.6 °F 87% 30.26 in 10.0 mi SSE 3.5 mph - N/A   Clear
12:35 AM 39.2 °F 35.9 °F 32.0 °F 75% 30.25 in 10.0 mi South 4.6 mph - N/A   Clear
12:55 AM 41.0 °F 38.0 °F 33.8 °F 76% 30.25 in 10.0 mi South 4.6 mph - N/A   Clear
1:15 AM 41.0 °F - 33.8 °F 76% 30.25 in 10.0 mi Calm Calm - N/A   Clear
1:35 AM 39.2 °F - 35.6 °F 87% 30.25 in 10.0 mi Calm Calm - N/A   Clear
1:55 AM 39.2 °F - 35.6 °F 87% 30.26 in 10.0 mi Calm Calm - N/A   Clear
2:15 AM 39.2 °F - 35.6 °F 87% 30.26 in 10.0 mi Calm Calm - N/A   Clear
2:35 AM 39.2 °F - 35.6 °F 87% 30.27 in 10.0 mi Calm Calm - N/A   Clear
2:55 AM 39.2 °F - 35.6 °F 87% 30.26 in 10.0 mi Calm Calm - N/A   Clear
3:15 AM 37.4 °F - 33.8 °F 87% 30.27 in 10.0 mi Calm Calm - N/A   Clear
3:35 AM 37.4 °F - 33.8 °F 87% 30.26 in 10.0 mi Calm Calm - N/A   Clear
3:55 AM 37.4 °F - 33.8 °F 87% 30.26 in 10.0 mi Calm Calm - N/A   Clear
4:15 AM 37.4 °F - 33.8 °F 87% 30.26 in 10.0 mi Calm Calm - N/A   Clear
4:35 AM 35.6 °F 32.8 °F 32.0 °F 87% 30.26 in 10.0 mi SE 3.5 mph - N/A   Clear
4:55 AM 35.6 °F 31.7 °F 32.0 °F 87% 30.26 in 10.0 mi SE 4.6 mph - N/A   Clear
5:15 AM 35.6 °F - 32.0 °F 87% 30.26 in 10.0 mi Calm Calm - N/A   Clear
5:35 AM 35.6 °F - 32.0 °F 87% 30.27 in 10.0 mi Calm Calm - N/A   Clear
5:55 AM 35.6 °F - 32.0 °F 87% 30.27 in 10.0 mi Calm Calm - N/A   Clear
6:15 AM 35.6 °F - 32.0 °F 87% 30.28 in 10.0 mi Calm Calm - N/A   Clear
6:35 AM 37.4 °F - 33.8 °F 87% 30.28 in 10.0 mi Calm Calm - N/A   Mostly Cloudy
6:49 AM 37.4 °F 33.8 °F 33.8 °F 87% 30.28 in 8.0 mi ESE 4.6 mph - N/A   Mostly Cloudy
6:55 AM 37.4 °F 33.8 °F 33.8 °F 87% 30.28 in 10.0 mi SE 4.6 mph - N/A   Partly Cloudy
7:47 AM 37.4 °F - 32.0 °F 81% 30.30 in 7.0 mi Calm Calm - N/A   Mostly Cloudy
8:51 AM 41.0 °F - 37.4 °F 87% 30.33 in 8.0 mi Calm Calm - N/A   Mostly Cloudy
9:47 AM 44.6 °F 43.1 °F 37.4 °F 76% 30.35 in 8.0 mi ENE 3.5 mph - N/A   Partly Cloudy
10:57 AM 48.2 °F - 41.0 °F 76% 30.34 in 8.0 mi East 3.5 mph - N/A   Clear
11:59 AM 48.2 °F - 44.6 °F 87% 30.30 in 5.0 mi Calm Calm - N/A   Haze
1:52 PM 51.8 °F - 41.0 °F 67% 30.28 in 8.0 mi North 6.9 mph - N/A   Clear
2:48 PM 55.4 °F - 44.6 °F 67% 30.27 in 10.0 mi North - - N/A   Clear
3:48 PM 55.4 °F - 42.8 °F 63% 30.27 in 10.0 mi Calm Calm - N/A   Clear
4:47 PM 50.0 °F - 44.6 °F 82% 30.27 in 8.0 mi North 3.5 mph - N/A   Partly Cloudy
5:53 PM 48.2 °F - 41.0 °F 76% 30.27 in 10.0 mi Calm Calm - N/A   Partly Cloudy
6:47 PM 50.0 °F - 37.4 °F 62% 30.28 in 10.0 mi Calm Calm - N/A   Clear
7:47 PM 48.2 °F - 37.4 °F 66% 30.29 in 10.0 mi Calm Calm - N/A   Clear
8:47 PM 44.6 °F - 37.4 °F 76% 30.30 in 10.0 mi Calm Calm - N/A   Clear
9:15 PM 44.6 °F - 37.4 °F 76% 30.31 in 10.0 mi Calm Calm - N/A   Clear
9:35 PM 44.6 °F - 37.4 °F 76% 30.31 in 10.0 mi Calm Calm - N/A   Clear
9:55 PM 42.8 °F - 35.6 °F 76% 30.31 in 10.0 mi Calm Calm - N/A   Clear
10:15 PM 44.6 °F - 37.4 °F 76% 30.32 in 10.0 mi Calm Calm - N/A   Clear
10:35 PM 44.6 °F - 39.2 °F 81% 30.32 in 10.0 mi Calm Calm - N/A   Clear
10:55 PM 42.8 °F - 35.6 °F 76% 30.33 in 10.0 mi Calm Calm - N/A   Clear
11:15 PM 41.0 °F - 37.4 °F 87% 30.34 in 10.0 mi Calm Calm - N/A   Clear
11:35 PM 42.8 °F 41.1 °F 35.6 °F 76% 30.33 in 10.0 mi SW 3.5 mph - N/A   Clear
11:55 PM 42.8 °F - 35.6 °F 76% 30.33 in 10.0 mi Calm Calm - N/A   Clear